Location: Vancouver
(49.2500°N, 123.1330°W)
Time: 08:10:21
(UTC-07:00)

A-11 Canister half - Visible Passes

Search period start: 03 August 2015 00:00
Search period end: 13 August 2015 00:00
Orbit: 1526 x 1684 km, 47.3° (Epoch: 01 August)

Date Brightness Start Highest point End Pass type
(mag) Time Alt. Az. Time Alt. Az. Time Alt. Az.
03 Aug 10.5 05:07:43 10° S 05:15:32 27° SE 05:23:35 10° E visible
04 Aug 10.5 04:46:24 10° S 04:54:01 26° SE 05:01:54 10° E visible
05 Aug 10.5 04:25:06 10° S 04:32:31 25° SE 04:40:14 10° E visible
06 Aug 10.5 04:03:49 10° S 04:11:01 23° SE 04:18:32 10° E visible
07 Aug 10.5 03:42:34 10° S 03:49:31 22° SE 03:56:49 10° E visible
08 Aug 10.5 03:22:06 12° SSE 03:28:01 21° SE 03:35:06 10° E visible
09 Aug 10.5 03:01:45 14° SSE 03:06:31 20° SE 03:13:21 10° E visible
09 Aug 9.6 05:00:26 10° SW 05:10:03 52° SSE 05:19:43 10° ENE visible
10 Aug 10.5 02:41:21 15° SSE 02:45:01 19° SE 02:51:35 10° E visible
10 Aug 9.6 04:39:39 13° SW 04:48:30 50° SSE 04:58:07 10° ENE visible
11 Aug 10.5 02:20:55 16° SE 02:23:32 18° SE 02:29:46 10° E visible
11 Aug 9.6 04:19:13 16° SSW 04:26:58 48° SSE 04:36:31 10° ENE visible
12 Aug 10.5 02:00:27 16° SE 02:02:02 17° SE 02:07:56 10° E visible
12 Aug 9.6 03:58:45 21° SSW 04:05:25 47° SE 04:14:56 10° ENE visible
